[[{"header":{"parameterUnit":"m.s-1","parameterCategory":1,"la1":30.2991,"la2":30.254,"lo1":-89.0895,"lo2":-89.0444,"dy":0.0017,"dx":0.0017,"nx":28,"ny":28,"refTime":"2025-11-28T03:00:00:Z","depth":0,"parameterNumber":2,"parameterNumberName":"U-component_of_WINDS"},"data":[0,0,0,0,0,0,0,0,0,0,0,0,0,0,0,0,0,0,0,0,0,0,0,0,0,0,0,0,0,0,0,0,0,0,0,0,0,0,0,0,0,0,0,0,0,0,0,0,0,0,0,0,0,0,0,0,0,0,-7.0133,-7.0134,0,-7.022,-7.0221,-7.0222,-7.0075,-7.007,-7.0065,-7.006,-7.0147,-7.0154,-7.0161,0,0,0,0,0,0,0,0,0,0,0,0,0,-6.9836,-6.9842,-7.0133,-7.0134,-7.0135,-7.022,-7.0221,-7.0223,-7.0075,-7.0069,-7.0063,-7.0058,-7.0145,-7.0153,-7.0162,0,0,0,0,0,0,0,0,0,0,0,0,0,-6.9948,-6.9844,-7.0133,-7.0072,-7.0067,-7.022,-7.0221,-7.0223,-7.0077,-7.0069,-7.0062,-7.0055,-7.0142,-7.0153,-7.0163,-7.0378,0,0,-7.0195,-7.02,0,0,0,0,0,0,0,0,-6.9942,-6.9959,-7.008,-7.0076,-7.0072,-7.0129,-7.0149,-7.0275,-7.0079,-7.0073,-7.006,-7.0051,-7.0147,-7.0157,-7.019,-7.0382,-7.0386,-7.0196,-7.0202,-7.0207,-7.021,0,0,0,0,0,0,0,-6.9935,-6.9955,-7.0167,-7.0082,-7.0077,-7.0039,-7.0047,-7.0172,-7.0151,-7.0073,-7.0063,-7.0075,-7.0143,-7.018,-7.0191,-7.0387,-7.0196,-7.0205,-7.0212,-7.0216,-7.0758,-7.0766,0,0,0,0,0,0,-6.9935,-6.9949,-7.0164,-7.017,-6.9987,-7.0051,-7.0059,-7.0118,-7.0149,-7.0147,-7.0081,-7.0068,-7.0166,-7.0179,-7.0193,-7.0444,-7.0207,-7.0217,-7.0223,-7.075,-7.076,-7.0768,0,0,0,0,0,0,-6.9929,-6.9955,-7.0161,-7.0057,-7.008,-7.0064,-7.0131,-7.0124,-7.016,-7.0156,-7.0151,-7.0122,-7.016,-7.0178,-7.0333,-7.0445,-7.0221,-7.0231,-7.074,-7.0753,-7.0764,-7.0949,0,0,0,0,0,0,-6.9921,-6.9954,-7.0036,-7.006,-7.0086,-7.03,-7.0138,-7.0131,-7.0179,-7.0162,-7.0193,-7.0191,-7.0156,-7.0318,-7.0343,-7.0455,-7.0239,-7.073,-7.0746,-7.076,-7.0933,-7.0966,-7.0995,0,0,0,0,0,-6.9911,-7.0085,-7.0041,-7.0068,-7.0189,-7.0307,-7.0322,-7.0278,-7.0188,-7.027,-7.0267,-7.019,-7.043,-7.0335,-7.0362,-7.0479,-7.0723,-7.0741,-7.0759,-7.0919,-7.096,-7.0994,0,0,0,0,0,0,-7.0074,-7.0087,-7.0038,-7.0226,-7.0267,-7.0282,-7.0383,-7.0323,-7.039,-7.0371,-7.0314,-7.0322,-7.0488,-7.05,-7.0394,-7.0688,-7.0561,-7.0585,-7.0673,-7.0712,-7.0742,-7.0734,-7.0248,0,0,0,0,0,-7.0132,-7.0228,-7.0234,-7.0398,-7.0422,-7.04,-7.045,-7.0413,-7.0452,-7.0468,-7.0477,-7.0518,-7.0602,-7.0658,-7.0736,-7.0936,-7.0938,-7.103,-7.1061,-7.1086,-7.1106,-7.121,-7.1249,-7.0828,-7.0828,-7.0828,0,0,-7.0252,-7.0271,-7.0335,-7.0432,-7.0459,-7.0558,-7.0415,-7.0526,-7.0598,-7.0485,-7.063,-7.0639,-7.068,-7.0858,-7.0936,-7.0872,-7.1224,-7.1109,-7.113,-7.1136,-7.1232,-7.1272,-7.1308,-7.0841,-7.0838,-7.0836,0,0,-7.052,-7.0547,-7.0685,-7.0715,-7.0758,-7.0743,-7.0777,-7.0802,-7.0803,-7.0948,-7.0864,-7.095,-7.1097,-7.1129,-7.1165,-7.1447,-7.1377,-7.1474,-7.1633,-7.1735,-7.1768,-7.1797,-7.1893,-7.1929,-7.1495,-7.1496,-7.1496,0,-7.0664,-7.081,-7.0763,-7.088,-7.0923,-7.0827,-7.0965,-7.0998,-7.1064,-7.1096,-7.1025,-7.1206,-7.1228,-7.1409,-7.1478,-7.1512,-7.1546,-7.1468,-7.1767,-7.1796,-7.1822,-7.1913,-7.1951,-7.1507,-7.1506,-7.1505,-7.1504,0,-7.0982,-7.1085,-7.1192,-7.1258,-7.1314,-7.1442,-7.1413,-7.1476,-7.1435,-7.1427,-7.1575,-7.1598,-7.1677,-7.1719,-7.168,-7.1895,-7.1854,-7.1777,-7.1647,-7.1874,-7.1959,-7.1994,-7.1523,-7.1519,-7.1516,-7.1513,0,0,-7.1352,-7.1392,-7.1431,-7.1459,-7.15,-7.1578,-7.1701,-7.1779,-7.1832,-7.1883,-7.1982,-7.2109,-7.2037,-7.2078,-7.2043,-7.2133,-7.235,-7.2043,-7.2043,-7.2095,-7.2584,-7.2638,-7.268,-7.2306,-7.2313,-7.2318,-7.2579,0,-7.1615,-7.1826,-7.1788,-7.1992,-7.2085,-7.1996,-7.2102,-7.2139,-7.2135,-7.2213,-7.2209,-7.2298,-7.2199,-7.2222,-7.2308,-7.2305,-7.2446,-7.2287,-7.2395,-7.2399,-7.2382,-7.2725,-7.2783,-7.3028,-7.2612,-7.2618,-7.2622,0,-7.1949,-7.2011,-7.2225,-7.225,-7.2288,-7.2384,-7.2451,-7.2528,-7.2567,-7.2558,-7.2605,-7.2552,-7.2673,-7.2546,-7.271,-7.2602,-7.2645,-7.2651,-7.266,-7.2663,-7.2521,-7.2734,-7.3105,-7.314,-7.2675,-7.267,-7.2667,0,-7.2191,-7.2329,-7.2474,-7.2501,-7.2536,-7.2605,-7.2622,-7.2655,-7.2703,-7.2763,-7.2794,-7.2868,-7.2906,-7.2964,-7.2933,-7.2844,-7.3101,-7.2972,-7.3094,-7.3095,-7.3148,-7.3144,-7.3527,-7.3185,-7.3184,-7.3184,-7.3183,0,-7.2486,-7.2619,-7.2582,-7.2671,-7.2817,-7.2773,-7.2919,-7.2926,-7.2956,-7.3043,-7.2973,-7.3056,-7.3012,-7.3092,-7.3069,-7.3206,-7.3226,-7.322,-7.3211,-7.3223,-7.3223,-7.3246,-7.3226,-7.3193,-7.3191,-7.3189,-7.3188,0,-7.2778,-7.276,-7.2911,-7.2932,-7.2941,-7.3047,-7.3064,-7.3146,-7.3138,-7.325,-7.3274,-7.3261,-7.3351,-7.3327,-7.3426,-7.341,-7.3582,-7.3555,-7.3569,-7.356,-7.3681,-7.3669,-7.4088,-7.4139,-7.3769,-7.3773,-7.3776,0,-7.2965,-7.3065,-7.3097,-7.315,-7.3173,-7.3261,-7.3311,-7.3272,-7.3326,-7.3379,-7.3454,-7.3539,-7.3603,-7.3753,-7.3751,-7.3826,-7.3797,-7.3939,-7.3807,-7.3816,-7.3793,-7.3785,-7.3793,-7.3963,-7.3967,-7.3971,-7.3974,0,-7.3296,-7.3282,-7.3356,-7.3428,-7.3489,-7.3544,-7.3591,-7.364,-7.3604,-7.3669,-7.376,-7.3811,-7.3912,-7.3996,-7.4065,-7.4081,-7.4021,-7.4016,-7.4047,-7.4058,-7.406,-7.4056,-7.3634,-7.4005,-7.4002,-7.4,-7.3998,-7.3997,-7.3537,-7.3621,-7.3656,-7.3741,-7.3774,-7.382,-7.3897,-7.39,-7.3976,-7.4054,-7.4028,-7.4132,-7.4168,-7.4254,-7.428,-7.4361,-7.4306,-7.4353,-7.4364,-7.4374,-7.4387,-7.4052,-7.4374,-7.4373,-7.4372,-7.4371,-7.4371,0,-7.386,-7.3879,-7.3958,-7.4027,-7.4094,-7.4034,-7.4084,-7.4143,-7.4236,-7.4275,-7.4341,-7.4446,-7.4527,-7.4534,-7.461,-7.4673,-7.4647,-7.4693,-7.4685,-7.469,-7.4434,-7.4397,-7.4713,-7.4713,-7.4713,-7.4713,-7.4712,-7.4712,-7.4036,-7.4173,-7.4164,-7.4317,-7.4334,-7.4436,-7.4469,-7.4511,-7.4542,-7.4662,-7.4729,-7.4734,-7.4759,-7.4837,-7.4908,-7.4908,-7.4937,-7.4994,-7.4983,-7.4742,-7.4708,-7.4675,-7.464,-7.5002,-7.5002,-7.5231,-7.5233,-7.5234]},{"header":{"parameterUnit":"m.s-1","parameterCategory":1,"la1":30.2991,"la2":30.254,"lo1":-89.0895,"lo2":-89.0444,"dy":0.0017,"dx":0.0017,"nx":28,"ny":28,"refTime":"2025-11-28T03:00:00:Z","depth":0,"parameterNumber":3,"parameterNumberName":"V-component_of_WINDS"},"data":[0,0,0,0,0,0,0,0,0,0,0,0,0,0,0,0,0,0,0,0,0,0,0,0,0,0,0,0,0,0,0,0,0,0,0,0,0,0,0,0,0,0,0,0,0,0,0,0,0,0,0,0,0,0,0,0,0,0,1.3573,1.3572,0,1.3505,1.3505,1.3504,1.3323,1.332,1.3316,1.3312,1.3249,1.3251,1.3253,0,0,0,0,0,0,0,0,0,0,0,0,0,1.3551,1.3552,1.3573,1.3572,1.3571,1.3506,1.3505,1.3504,1.3324,1.3319,1.3315,1.331,1.3249,1.3251,1.3253,0,0,0,0,0,0,0,0,0,0,0,0,0,1.353,1.3553,1.3573,1.3473,1.3464,1.3506,1.3505,1.3504,1.3325,1.3319,1.3313,1.3308,1.3248,1.3251,1.3254,1.3389,0,0,1.3263,1.3264,0,0,0,0,0,0,0,0,1.3531,1.3531,1.3489,1.348,1.3469,1.3417,1.3474,1.3465,1.3327,1.3378,1.3312,1.3305,1.331,1.3308,1.3308,1.3386,1.3383,1.3263,1.3265,1.3266,1.3267,0,0,0,0,0,0,0,1.3533,1.3533,1.3546,1.3488,1.3477,1.3434,1.3424,1.3471,1.3378,1.3373,1.336,1.3354,1.3304,1.3306,1.3305,1.3382,1.3263,1.3266,1.3267,1.3269,1.3569,1.3575,0,0,0,0,0,0,1.3548,1.3535,1.3548,1.3544,1.3486,1.3439,1.3428,1.344,1.3377,1.3361,1.3359,1.3346,1.3304,1.3302,1.3302,1.3457,1.3266,1.3269,1.3271,1.3563,1.357,1.3577,0,0,0,0,0,0,1.3548,1.3551,1.3551,1.3536,1.3533,1.3445,1.346,1.3441,1.3443,1.3366,1.3349,1.3378,1.3299,1.3298,1.3368,1.3452,1.327,1.3273,1.3555,1.3565,1.3573,1.3768,0,0,0,0,0,0,1.3548,1.3552,1.3601,1.3538,1.3534,1.3617,1.3465,1.3444,1.3448,1.343,1.3379,1.3365,1.3294,1.3365,1.3372,1.3453,1.3275,1.3547,1.3559,1.357,1.3753,1.3782,1.3807,0,0,0,0,0,1.3548,1.366,1.3605,1.3607,1.3593,1.3622,1.362,1.3534,1.3455,1.3505,1.3456,1.3367,1.3442,1.3374,1.3379,1.3463,1.3542,1.3556,1.357,1.3741,1.3777,1.3807,0,0,0,0,0,0,1.3737,1.365,1.3588,1.3682,1.3661,1.3592,1.3651,1.3574,1.3577,1.356,1.3456,1.3446,1.3531,1.3504,1.3429,1.3591,1.3477,1.3493,1.3606,1.3639,1.3666,1.3671,1.3278,0,0,0,0,0,1.3789,1.3817,1.374,1.3831,1.3823,1.374,1.3749,1.3685,1.366,1.365,1.3606,1.3587,1.3605,1.3621,1.3634,1.3748,1.3736,1.3809,1.3836,1.3858,1.3874,1.3934,1.3966,1.3623,1.3622,1.3622,0,0,1.3898,1.3854,1.3878,1.3868,1.3844,1.3878,1.3734,1.3775,1.38,1.3657,1.372,1.3688,1.3659,1.3753,1.3791,1.3732,1.3966,1.3876,1.3895,1.3898,1.3951,1.3984,1.4013,1.3632,1.363,1.3629,0,0,1.4113,1.4082,1.4154,1.4133,1.4098,1.4041,1.4059,1.4002,1.3974,1.4035,1.3929,1.3958,1.3992,1.3977,1.3973,1.4184,1.4103,1.4191,1.4333,1.4392,1.4419,1.4443,1.4519,1.4548,1.4206,1.4207,1.4207,0,1.4254,1.4298,1.4202,1.425,1.425,1.4119,1.4193,1.4178,1.415,1.4154,1.4087,1.4128,1.41,1.4188,1.424,1.4241,1.4259,1.4197,1.4423,1.4445,1.4466,1.4538,1.4567,1.4218,1.4217,1.4215,1.4214,0,1.4473,1.4506,1.4569,1.4543,1.4549,1.4611,1.4526,1.4544,1.4479,1.4431,1.4496,1.4457,1.4461,1.4477,1.4415,1.4557,1.4522,1.4441,1.4325,1.4511,1.4577,1.4604,1.4234,1.423,1.4226,1.4224,0,0,1.4806,1.4726,1.4751,1.4738,1.4689,1.4714,1.477,1.4771,1.479,1.4776,1.4821,1.4854,1.4778,1.4775,1.471,1.4762,1.4933,1.4675,1.4673,1.4726,1.509,1.5152,1.5185,1.4879,1.4884,1.4887,1.5092,0,1.501,1.5099,1.5014,1.5121,1.5151,1.5028,1.5077,1.5055,1.5011,1.5032,1.4984,1.5009,1.4907,1.4904,1.495,1.4903,1.5005,1.4887,1.4923,1.4925,1.4935,1.5219,1.5284,1.548,1.5117,1.5122,1.5125,0,1.526,1.5256,1.5365,1.531,1.5319,1.5365,1.536,1.538,1.5353,1.5317,1.5314,1.5234,1.5287,1.5173,1.5246,1.5168,1.5177,1.5156,1.5162,1.5163,1.5037,1.5229,1.554,1.557,1.5164,1.5161,1.5158,0,1.5494,1.5515,1.5583,1.5576,1.5513,1.5548,1.5524,1.549,1.5497,1.5493,1.5496,1.55,1.5503,1.5509,1.5433,1.5356,1.5517,1.5395,1.5491,1.5493,1.5531,1.553,1.5849,1.5536,1.5535,1.5535,1.5534,0,1.5732,1.5804,1.5687,1.573,1.5807,1.571,1.579,1.5754,1.5725,1.5759,1.5653,1.5689,1.5586,1.5611,1.5553,1.5623,1.5625,1.56,1.5583,1.561,1.5613,1.5615,1.5601,1.5542,1.5541,1.5539,1.5538,0,1.6006,1.5931,1.5997,1.5932,1.5917,1.5978,1.5922,1.596,1.5909,1.5954,1.596,1.5881,1.5905,1.5829,1.5842,1.5803,1.5906,1.5867,1.5915,1.5904,1.6004,1.5996,1.6337,1.6377,1.6038,1.6041,1.6044,0,1.6163,1.6216,1.6156,1.617,1.6151,1.6176,1.6182,1.6088,1.6099,1.6072,1.6113,1.6128,1.6135,1.618,1.6125,1.6135,1.6096,1.6215,1.6097,1.6122,1.61,1.6098,1.6104,1.624,1.6244,1.6248,1.625,0,1.6451,1.6411,1.6422,1.6421,1.643,1.6425,1.6413,1.6432,1.6331,1.6349,1.6371,1.6377,1.6389,1.6406,1.6404,1.6381,1.6301,1.6288,1.631,1.6338,1.6365,1.6353,1.5983,1.628,1.6277,1.6275,1.6274,1.6272,1.6672,1.6713,1.6677,1.6693,1.6674,1.6665,1.6697,1.665,1.6666,1.6667,1.6612,1.6646,1.6618,1.6606,1.6592,1.6619,1.6564,1.6597,1.6605,1.6615,1.6633,1.6359,1.6618,1.6617,1.6616,1.6615,1.6615,0,1.6955,1.6925,1.6941,1.6927,1.694,1.686,1.6843,1.6861,1.6891,1.6871,1.6879,1.6906,1.6922,1.6869,1.6878,1.691,1.6873,1.6915,1.6913,1.6909,1.668,1.666,1.6945,1.6945,1.6945,1.6945,1.6945,1.6945,1.7103,1.7169,1.7125,1.7181,1.7151,1.7182,1.7179,1.7171,1.7154,1.7188,1.72,1.7164,1.7131,1.7137,1.7149,1.7133,1.7142,1.7198,1.717,1.6957,1.6925,1.6895,1.6875,1.72,1.7201,1.7396,1.7398,1.7399]}]]